Location: Monrovia
(34.7865°N, 86.7139°W)
Time: 21:23:17
(UTC+00:00)

CZ-2C R/B - Pass Details

Date: 14 July 2020
Orbit: 667 x 785 km, 98.2° (Epoch: 08 August)

Event Time Altitude Azimuth Distance (km) Brightness Sun altitude
Rises 08:55:29 0° 28° (NNE) 3,094 7.0 -18.9°
Reaches altitude 10° 08:58:12 10° 43° (NE) 2,152 6.1 -18.5°
Maximum altitude 09:01:53 23° 95° (E) 1,452 4.4 -18.0°
Drops below altitude 10° 09:05:29 10° 147° (SSE) 2,100 4.7 -17.4°
Enters shadow 09:07:45 - 161° (SSE) 2,875 5.2 -17.1°
